Regional Weather Roundup
Issued by NWS

Home | Current Version | Previous Version | Graphics & Text | Print | Product List | Glossary On
Versions: 1 2 3 4 5 6 7 8 9 10 11 12 13 14 15 16 17 18 19 20 21 22 23 24 25 26 27 28 29 30 31 32 33 34 35 36 37 38 39 40 41 42 43 44 45 46 47 48 49 50
183
ASUS43 KLMK 270802
RWRKY
KENTUCKY REGIONAL WEATHER ROUNDUP
NATIONAL WEATHER SERVICE LOUISVILLE KY
400 AM EDT THU JUL 27 2017

NOTE "FAIR" INDICATES FEW OR NO CLOUDS BELOW 12,000 FEET
WITH NO SIGNIFICANT WEATHER AND/OR OBSTRUCTIONS TO VISIBILITY.

KYZ001>023-026-027-061>063-070>075-270900-
WESTERN AND SOUTH CENTRAL KENTUCKY

CITY           SKY/WX    TMP DP  RH WIND       PRES   REMARKS
PADUCAH        PTCLDY    79  73  82 S5        29.96S
HENDERSON      CLOUDY    76  74  93 S5        29.95F
OWENSBORO      CLOUDY    75  73  93 S5        29.96F
HOPKINSVILLE   CLOUDY    78  76  92 SW5       29.98F
BOWLING GREEN  CLOUDY    80  76  87 W3        29.99F
GLASGOW        NOT AVBL
$$

KYZ024-025-028>034-038-045-046-053-270900-
NORTH CENTRAL KENTUCKY

CITY           SKY/WX    TMP DP  RH WIND       PRES   REMARKS
LOUISVILLE/SDF CLOUDY    80  72  76 SW7       29.95F
LOUISVILLE/LOU MOCLDY    79  74  84 CALM      29.96F
FORT KNOX      CLOUDY    76  72  89 SW5       29.96F
$$

KYZ035>037-039>044-047>052-055>060-089>105-270900-
NORTHEAST KENTUCKY

CITY           SKY/WX    TMP DP  RH WIND       PRES   REMARKS
LEXINGTON      CLOUDY    77  70  79 SW6       29.99F
COVINGTON      CLOUDY    74  70  87 CALM      29.96F
FRANKFORT      MOCLDY    78  72  81 SW3       29.96F
$$

KYZ054-064>069-076>088-106>120-270900-
SOUTHEAST KENTUCKY

CITY           SKY/WX    TMP DP  RH WIND       PRES   REMARKS
JACKSON        CLOUDY    73  68  84 CALM      30.04R
LONDON         PTCLDY    71  69  93 CALM      30.04F
SOMERSET       CLOUDY    70  70 100 CALM      30.04F
MIDDLESBORO    CLEAR     70  70 100 CALM      30.07R
MONTICELLO     CLOUDY    72  71  97 CALM      30.04F
$$





USA.gov is the U.S. government's official web portal to all federal, state and local government web resources and services.